Location: *
(55.6049°S, 142.1985°W)
Time: 00:37:17
(UTC+00:00)

SL-16 R/B - Pass Details

Date: 12 May 2021
Orbit: 984 x 1007 km, 99.5° (Epoch: 23 June)

Event Time Altitude Azimuth Distance (km) Brightness Sun altitude
Rises 15:06:14 0° 163° (SSE) 3,748 5.7 -17.7°
Reaches altitude 10° 15:09:35 10° 181° (S) 2,798 4.8 -17.2°
Maximum altitude 15:13:28 17° 219° (SW) 2,296 4.0 -16.6°
Enters shadow 15:14:01 17° 226° (SW) 2,307 4.0 -16.6°
